| time (UTC) | temp C | wind direction | speed KPH | gust KPH | rain 1hr cm | rain 24hr cm | rain mn cm | humidity % | barometer mb |
| 20260504130403 | 15 | 188 | 1.6 | 9.7 | 0.00 | 0.00 | 0.00 | 77 | 1011.5 |
| 20260504100403 | 13 | 192 | 1.6 | 3.2 | 0.00 | 0.00 | 0.00 | 81 | 1011.0 |
| 20260504082003 | 13 | 0 | 0.0 | 0.0 | 0.00 | 0.00 | 0.00 | 81 | 1011.2 |
| 20260504081603 | 13 | 114 | 0.0 | 1.6 | 0.00 | 0.00 | 0.00 | 80 | 1011.2 |
| 20260504081203 | 13 | 161 | 0.0 | 3.2 | 0.00 | 0.00 | 0.00 | 80 | 1011.2 |
| 20260504080403 | 13 | 143 | 1.6 | 3.2 | 0.00 | 0.00 | 0.00 | 80 | 1011.3 |
| 20260504070402 | 13 | 152 | 0.0 | 6.4 | 0.00 | 0.00 | 0.00 | 78 | 1011.7 |
| 20260504050403 | 15 | 132 | 0.0 | 1.6 | 0.00 | 0.00 | 0.00 | 74 | 1012.4 |
| 20260504050004 | 15 | 132 | 0.0 | 1.6 | 0.00 | 0.00 | 0.00 | 73 | 1012.3 |
| 20260504045603 | 15 | 0 | 0.0 | 0.0 | 0.00 | 0.00 | 0.00 | 73 | 1012.4 |
| 20260504045203 | 15 | 0 | 0.0 | 0.0 | 0.00 | 0.00 | 0.00 | 73 | 1012.4 |
| 20260504044803 | 15 | 0 | 0.0 | 0.0 | 0.00 | 0.00 | 0.00 | 72 | 1012.4 |
| 20260504044004 | 15 | 132 | 0.0 | 1.6 | 0.00 | 0.00 | 0.00 | 72 | 1012.4 |
| 20260504043603 | 15 | 132 | 0.0 | 1.6 | 0.00 | 0.00 | 0.00 | 71 | 1012.5 |
| 20260504043203 | 15 | 132 | 0.0 | 1.6 | 0.00 | 0.00 | 0.00 | 71 | 1012.5 |
| 20260504042403 | 16 | 134 | 0.0 | 1.6 | 0.00 | 0.00 | 0.00 | 70 | 1012.6 |
| 20260504042004 | 16 | 135 | 1.6 | 3.2 | 0.00 | 0.00 | 0.00 | 70 | 1012.6 |
| 20260504041604 | 16 | 134 | 1.6 | 3.2 | 0.00 | 0.00 | 0.00 | 70 | 1012.6 |
| 20260504041203 | 16 | 138 | 0.0 | 3.2 | 0.00 | 0.00 | 0.00 | 70 | 1012.7 |
| 20260504040403 | 16 | 148 | 0.0 | 3.2 | 0.00 | 0.00 | 0.00 | 70 | 1012.7 |
| 20260504040004 | 16 | 146 | 0.0 | 1.6 | 0.00 | 0.00 | 0.00 | 70 | 1012.8 |
| 20260504035603 | 16 | 140 | 0.0 | 3.2 | 0.00 | 0.00 | 0.00 | 70 | 1012.8 |
| 20260504035203 | 16 | 140 | 0.0 | 3.2 | 0.00 | 0.00 | 0.00 | 70 | 1012.8 |
| 20260504034804 | 16 | 137 | 0.0 | 3.2 | 0.00 | 0.00 | 0.00 | 70 | 1012.8 |
| 20260504034403 | 16 | 137 | 0.0 | 1.6 | 0.00 | 0.00 | 0.00 | 70 | 1012.9 |
| 20260504034003 | 16 | 141 | 1.6 | 3.2 | 0.00 | 0.00 | 0.00 | 70 | 1013.0 |
| 20260504033603 | 16 | 142 | 1.6 | 3.2 | 0.00 | 0.00 | 0.00 | 69 | 1013.0 |
| 20260504033203 | 16 | 142 | 0.0 | 1.6 | 0.00 | 0.00 | 0.00 | 69 | 1013.1 |
| 20260504032804 | 16 | 145 | 0.0 | 1.6 | 0.00 | 0.00 | 0.00 | 68 | 1013.1 |
| 20260504032403 | 16 | 149 | 0.0 | 1.6 | 0.00 | 0.00 | 0.00 | 68 | 1013.2 |
| 20260504032004 | 16 | 0 | 0.0 | 0.0 | 0.00 | 0.00 | 0.00 | 68 | 1013.2 |
| 20260504031203 | 16 | 0 | 0.0 | 0.0 | 0.00 | 0.00 | 0.00 | 67 | 1013.2 |
| 20260504030803 | 16 | 0 | 0.0 | 0.0 | 0.00 | 0.00 | 0.00 | 66 | 1013.1 |
| 20260504030404 | 17 | 0 | 0.0 | 0.0 | 0.00 | 0.00 | 0.00 | 66 | 1013.1 |
| 20260504030004 | 17 | 0 | 0.0 | 0.0 | 0.00 | 0.00 | 0.00 | 65 | 1013.1 |
| 20260504025604 | 17 | 0 | 0.0 | 0.0 | 0.00 | 0.00 | 0.00 | 65 | 1013.1 |
| 20260504025204 | 17 | 0 | 0.0 | 0.0 | 0.00 | 0.00 | 0.00 | 65 | 1013.0 |
| 20260504024804 | 17 | 0 | 0.0 | 0.0 | 0.00 | 0.00 | 0.00 | 64 | 1013.0 |
| 20260504024404 | 17 | 154 | 0.0 | 1.6 | 0.00 | 0.00 | 0.00 | 64 | 1013.0 |
| 20260504024004 | 17 | 154 | 0.0 | 1.6 | 0.00 | 0.00 | 0.00 | 64 | 1012.9 |
| 20260504023603 | 17 | 191 | 0.0 | 3.2 | 0.00 | 0.00 | 0.00 | 63 | 1012.9 |
| 20260504023203 | 17 | 203 | 0.0 | 3.2 | 0.00 | 0.00 | 0.00 | 63 | 1012.8 |
| 20260504022803 | 18 | 0 | 0.0 | 0.0 | 0.00 | 0.00 | 0.00 | 63 | 1012.8 |
| 20260504022403 | 18 | 141 | 0.0 | 3.2 | 0.00 | 0.00 | 0.00 | 62 | 1012.8 |
| 20260504022003 | 18 | 146 | 0.0 | 3.2 | 0.00 | 0.00 | 0.00 | 62 | 1012.8 |
| 20260504021603 | 18 | 179 | 0.0 | 3.2 | 0.00 | 0.00 | 0.00 | 61 | 1012.8 |
| 20260504021203 | 18 | 184 | 0.0 | 3.2 | 0.00 | 0.00 | 0.00 | 60 | 1012.8 |
| 20260504020804 | 18 | 163 | 0.0 | 6.4 | 0.00 | 0.00 | 0.00 | 60 | 1012.7 |
| 20260504020404 | 18 | 152 | 0.0 | 6.4 | 0.00 | 0.00 | 0.00 | 59 | 1012.6 |
| 20260504020004 | 18 | 158 | 1.6 | 9.7 | 0.00 | 0.00 | 0.00 | 59 | 1012.5 |
| 20260504015603 | 18 | 166 | 0.0 | 9.7 | 0.00 | 0.00 | 0.00 | 59 | 1012.4 |
| 20260504015203 | 18 | 162 | 0.0 | 9.7 | 0.00 | 0.00 | 0.00 | 58 | 1012.5 |
| 20260504014804 | 18 | 185 | 0.0 | 6.4 | 0.00 | 0.00 | 0.00 | 58 | 1012.5 |
| 20260504014403 | 19 | 184 | 0.0 | 6.4 | 0.00 | 0.00 | 0.00 | 58 | 1012.5 |
| 20260504014005 | 19 | 178 | 0.0 | 4.8 | 0.00 | 0.00 | 0.00 | 58 | 1012.5 |
| 20260504013603 | 19 | 177 | 0.0 | 4.8 | 0.00 | 0.00 | 0.00 | 57 | 1012.5 |
| 20260504013204 | 20 | 174 | 0.0 | 4.8 | 0.00 | 0.00 | 0.00 | 56 | 1012.5 |
| 20260504012804 | 20 | 168 | 0.0 | 4.8 | 0.00 | 0.00 | 0.00 | 55 | 1012.5 |
| 20260504012404 | 20 | 161 | 0.0 | 4.8 | 0.00 | 0.00 | 0.00 | 55 | 1012.4 |
| 20260504012004 | 20 | 158 | 0.0 | 4.8 | 0.00 | 0.00 | 0.00 | 55 | 1012.4 |
| 20260504010004 | 21 | 176 | 1.6 | 6.4 | 0.00 | 0.00 | 0.00 | 52 | 1012.2 |
| 20260504005604 | 21 | 172 | 1.6 | 6.4 | 0.00 | 0.00 | 0.00 | 51 | 1012.1 |
| 20260504005203 | 21 | 178 | 1.6 | 9.7 | 0.00 | 0.00 | 0.00 | 51 | 1012.2 |
| 20260504004803 | 21 | 179 | 1.6 | 9.7 | 0.00 | 0.00 | 0.00 | 50 | 1012.1 |
| 20260504004403 | 22 | 174 | 1.6 | 9.7 | 0.00 | 0.00 | 0.00 | 50 | 1012.1 |
| 20260504004003 | 22 | 167 | 1.6 | 6.4 | 0.00 | 0.00 | 0.00 | 49 | 1012.2 |
| 20260504003604 | 22 | 169 | 1.6 | 4.8 | 0.00 | 0.00 | 0.00 | 49 | 1012.2 |
| 20260504002804 | 22 | 170 | 1.6 | 9.7 | 0.00 | 0.00 | 0.00 | 48 | 1012.2 |
| 20260504002404 | 22 | 174 | 1.6 | 3.2 | 0.00 | 0.00 | 0.00 | 47 | 1012.2 |
| 20260504002003 | 23 | 177 | 1.6 | 4.8 | 0.00 | 0.00 | 0.00 | 47 | 1012.2 |
| 20260504001604 | 23 | 173 | 1.6 | 4.8 | 0.00 | 0.00 | 0.00 | 47 | 1012.2 |
| 20260504001203 | 23 | 188 | 1.6 | 9.7 | 0.00 | 0.00 | 0.00 | 46 | 1012.2 |
| 20260504000804 | 23 | 186 | 3.2 | 9.7 | 0.00 | 0.00 | 0.00 | 45 | 1012.4 |
| 20260504000404 | 23 | 189 | 3.2 | 6.4 | 0.00 | 0.00 | 0.00 | 45 | 1012.4 |
| 20260504000004 | 24 | 191 | 1.6 | 11.3 | 0.00 | 0.00 | 0.00 | 45 | 1012.3 |
| 20260503235603 | 24 | 192 | 1.6 | 11.3 | 0.00 | 0.00 | 0.00 | 45 | 1012.2 |
| 20260503235203 | 24 | 190 | 3.2 | 11.3 | 0.00 | 0.00 | 0.00 | 43 | 1012.2 |
| 20260503234803 | 24 | 192 | 3.2 | 9.7 | 0.00 | 0.00 | 0.00 | 44 | 1012.3 |
| 20260503233604 | 25 | 178 | 1.6 | 6.4 | 0.00 | 0.00 | 0.00 | 44 | 1012.4 |
| 20260503233204 | 25 | 158 | 1.6 | 6.4 | 0.00 | 0.00 | 0.00 | 43 | 1012.4 |
| 20260503232803 | 25 | 155 | 3.2 | 6.4 | 0.00 | 0.00 | 0.00 | 41 | 1012.4 |
| 20260503232403 | 25 | 165 | 3.2 | 11.3 | 0.00 | 0.00 | 0.00 | 41 | 1012.4 |
| 20260503232004 | 25 | 179 | 4.8 | 14.5 | 0.00 | 0.00 | 0.00 | 41 | 1012.4 |
| 20260503231603 | 25 | 188 | 4.8 | 14.5 | 0.00 | 0.00 | 0.00 | 42 | 1012.4 |
| 20260503231203 | 25 | 184 | 6.4 | 16.1 | 0.00 | 0.00 | 0.00 | 39 | 1012.5 |
| 20260503230804 | 25 | 192 | 6.4 | 16.1 | 0.00 | 0.00 | 0.00 | 41 | 1012.5 |
| 20260503230404 | 25 | 192 | 4.8 | 14.5 | 0.00 | 0.00 | 0.00 | 40 | 1012.5 |
| 20260503225603 | 26 | 186 | 4.8 | 16.1 | 0.00 | 0.00 | 0.00 | 39 | 1012.7 |
| 20260503225205 | 26 | 191 | 4.8 | 16.1 | 0.00 | 0.00 | 0.00 | 38 | 1012.7 |
| 20260503224404 | 26 | 193 | 4.8 | 16.1 | 0.00 | 0.00 | 0.00 | 39 | 1012.8 |
| 20260503224007 | 26 | 197 | 4.8 | 14.5 | 0.00 | 0.00 | 0.00 | 38 | 1012.8 |
| 20260503223604 | 26 | 195 | 4.8 | 14.5 | 0.00 | 0.00 | 0.00 | 41 | 1012.8 |
| 20260503223206 | 25 | 198 | 6.4 | 16.1 | 0.00 | 0.00 | 0.00 | 41 | 1012.9 |
| 20260503222803 | 26 | 201 | 6.4 | 16.1 | 0.00 | 0.00 | 0.00 | 40 | 1012.9 |
| 20260503220804 | 25 | 182 | 6.4 | 14.5 | 0.00 | 0.00 | 0.00 | 38 | 1013.0 |
| 20260503220404 | 25 | 195 | 4.8 | 12.9 | 0.00 | 0.00 | 0.00 | 40 | 1013.2 |
| 20260503220003 | 26 | 185 | 4.8 | 12.9 | 0.00 | 0.00 | 0.00 | 39 | 1013.2 |
| 20260503215604 | 26 | 192 | 4.8 | 14.5 | 0.00 | 0.00 | 0.00 | 39 | 1013.2 |
| 20260503215203 | 25 | 201 | 6.4 | 20.9 | 0.00 | 0.00 | 0.00 | 40 | 1013.3 |
| 20260503214804 | 25 | 208 | 6.4 | 20.9 | 0.00 | 0.00 | 0.00 | 37 | 1013.3 |
| 20260503214003 | 25 | 205 | 6.4 | 20.9 | 0.00 | 0.00 | 0.00 | 38 | 1013.4 |
| 20260503213604 | 25 | 213 | 6.4 | 19.3 | 0.00 | 0.00 | 0.00 | 41 | 1013.5 |
| 20260503213204 | 25 | 220 | 6.4 | 19.3 | 0.00 | 0.00 | 0.00 | 42 | 1013.5 |
| 20260503212803 | 25 | 216 | 4.8 | 19.3 | 0.00 | 0.00 | 0.00 | 39 | 1013.6 |
| 20260503212003 | 25 | 195 | 6.4 | 19.3 | 0.00 | 0.00 | 0.00 | 39 | 1013.7 |
| 20260503211615 | 25 | 192 | 9.7 | 25.7 | 0.00 | 0.00 | 0.00 | 40 | 1013.9 |
| 20260503211203 | 25 | 194 | 9.7 | 25.7 | 0.00 | 0.00 | 0.00 | 39 | 1013.9 |
| 20260503210804 | 25 | 205 | 9.7 | 25.7 | 0.00 | 0.00 | 0.00 | 40 | 1013.9 |
| 20260503210403 | 25 | 204 | 6.4 | 24.1 | 0.00 | 0.00 | 0.00 | 39 | 1014.0 |
| 20260503210006 | 25 | 204 | 6.4 | 24.1 | 0.00 | 0.00 | 0.00 | 42 | 1014.0 |
| 20260503205604 | 25 | 207 | 4.8 | 22.5 | 0.00 | 0.00 | 0.00 | 42 | 1014.2 |
| 20260503205203 | 25 | 208 | 4.8 | 12.9 | 0.00 | 0.00 | 0.00 | 38 | 1014.2 |
| 20260503204006 | 24 | 196 | 6.4 | 19.3 | 0.00 | 0.00 | 0.00 | 41 | 1014.5 |
| 20260503203603 | 25 | 182 | 4.8 | 19.3 | 0.00 | 0.00 | 0.00 | 39 | 1014.5 |
| 20260503203204 | 25 | 174 | 3.2 | 12.9 | 0.00 | 0.00 | 0.00 | 40 | 1014.6 |
| 20260503202808 | 25 | 186 | 4.8 | 12.9 | 0.00 | 0.00 | 0.00 | 40 | 1014.7 |
| 20260503201205 | 24 | 175 | 4.8 | 12.9 | 0.00 | 0.00 | 0.00 | 41 | 1015.2 |
| 20260503200403 | 24 | 160 | 6.4 | 17.7 | 0.00 | 0.00 | 0.00 | 42 | 1015.4 |
| 20260503200004 | 24 | 158 | 6.4 | 17.7 | 0.00 | 0.00 | 0.00 | 42 | 1015.3 |
| 20260503195603 | 24 | 172 | 6.4 | 19.3 | 0.00 | 0.00 | 0.00 | 43 | 1015.4 |
| 20260503195204 | 24 | 187 | 6.4 | 19.3 | 0.00 | 0.00 | 0.00 | 40 | 1015.5 |
| 20260503194803 | 23 | 214 | 6.4 | 19.3 | 0.00 | 0.00 | 0.00 | 42 | 1015.7 |
| 20260503194403 | 23 | 220 | 6.4 | 17.7 | 0.00 | 0.00 | 0.00 | 42 | 1015.8 |
| 20260503194004 | 23 | 218 | 6.4 | 17.7 | 0.00 | 0.00 | 0.00 | 42 | 1015.8 |
| 20260503193204 | 23 | 228 | 6.4 | 20.9 | 0.00 | 0.00 | 0.00 | 42 | 1015.9 |
| 20260503192803 | 23 | 204 | 9.7 | 20.9 | 0.00 | 0.00 | 0.00 | 45 | 1016.0 |
| 20260503192404 | 23 | 195 | 6.4 | 16.1 | 0.00 | 0.00 | 0.00 | 41 | 1016.2 |
| 20260503192004 | 23 | 185 | 6.4 | 16.1 | 0.00 | 0.00 | 0.00 | 43 | 1016.2 |
| 20260503191603 | 23 | 195 | 6.4 | 14.5 | 0.00 | 0.00 | 0.00 | 41 | 1016.3 |
| 20260503191203 | 23 | 198 | 4.8 | 14.5 | 0.00 | 0.00 | 0.00 | 44 | 1016.4 |
| 20260503190803 | 23 | 218 | 6.4 | 14.5 | 0.00 | 0.00 | 0.00 | 41 | 1016.4 |
| 20260503190403 | 22 | 221 | 6.4 | 17.7 | 0.00 | 0.00 | 0.00 | 41 | 1016.4 |
| 20260503185604 | 22 | 203 | 6.4 | 17.7 | 0.00 | 0.00 | 0.00 | 45 | 1016.5 |
| 20260503185204 | 22 | 199 | 9.7 | 20.9 | 0.00 | 0.00 | 0.00 | 41 | 1016.5 |
| 20260503184803 | 22 | 183 | 6.4 | 20.9 | 0.00 | 0.00 | 0.00 | 43 | 1016.6 |
| 20260503184404 | 22 | 155 | 4.8 | 17.7 | 0.00 | 0.00 | 0.00 | 41 | 1016.5 |
| 20260503183604 | 22 | 186 | 6.4 | 17.7 | 0.00 | 0.00 | 0.00 | 44 | 1016.7 |
| 20260503183204 | 22 | 192 | 6.4 | 17.7 | 0.00 | 0.00 | 0.00 | 44 | 1016.9 |
| 20260503182804 | 22 | 209 | 6.4 | 17.7 | 0.00 | 0.00 | 0.00 | 43 | 1016.9 |
| 20260503182004 | 22 | 210 | 6.4 | 17.7 | 0.00 | 0.00 | 0.00 | 40 | 1017.2 |
| 20260503180816 | 21 | 217 | 6.4 | 20.9 | 0.00 | 0.00 | 0.00 | 42 | 1017.3 |
| 20260503180403 | 21 | 201 | 6.4 | 20.9 | 0.00 | 0.00 | 0.00 | 41 | 1017.4 |
| 20260503175603 | 21 | 168 | 6.4 | 14.5 | 0.00 | 0.00 | 0.00 | 41 | 1017.5 |
| 20260503175204 | 21 | 168 | 6.4 | 14.5 | 0.00 | 0.00 | 0.00 | 43 | 1017.6 |
| 20260503174804 | 21 | 190 | 9.7 | 19.3 | 0.00 | 0.00 | 0.00 | 42 | 1017.7 |
| 20260503174404 | 21 | 194 | 9.7 | 19.3 | 0.00 | 0.00 | 0.00 | 42 | 1017.7 |
| 20260503174004 | 21 | 195 | 6.4 | 19.3 | 0.00 | 0.00 | 0.00 | 42 | 1017.8 |
| 20260503173603 | 21 | 187 | 4.8 | 17.7 | 0.00 | 0.00 | 0.00 | 45 | 1017.9 |
| 20260503173203 | 21 | 201 | 4.8 | 17.7 | 0.00 | 0.00 | 0.00 | 44 | 1018.0 |
| 20260503172403 | 21 | 170 | 6.4 | 19.3 | 0.00 | 0.00 | 0.00 | 39 | 1018.1 |
| 20260503170804 | 20 | 194 | 6.4 | 17.7 | 0.00 | 0.00 | 0.00 | 43 | 1018.1 |
| 20260503170403 | 20 | 191 | 6.4 | 16.1 | 0.00 | 0.00 | 0.00 | 42 | 1018.2 |
| 20260503150804 | 14 | 209 | 4.8 | 16.1 | 0.00 | 0.00 | 0.00 | 65 | 1019.9 |
| 20260503150403 | 13 | 215 | 4.8 | 16.1 | 0.00 | 0.00 | 0.00 | 65 | 1019.9 |
| 20260503130803 | 6 | 153 | 3.2 | 6.4 | 0.00 | 0.00 | 0.00 | 94 | 1020.3 |